Lynchburg, VA

1:17 PM EDT on April 26, 2017 (GMT -0400)
Lynchburg Regional-Glenn

Weather History for KLYH - April, 2013

Change the Weather History Date:

Monday, April 15, 2013

  Actual Average Record
Temperature  
Mean Temperature 60 °F 55 °F  
Max Temperature 65 °F 68 °F 89 °F (1936)
Min Temperature 54 °F 43 °F 28 °F (1950)
Degree Days  
Heating Degree Days 5 10  
Month to date heating degree days 145 180  
Since 1 July heating degree days 4039 4199  
Cooling Degree Days 0 1  
Month to date cooling degree days 27 3  
Year to date cooling degree days 27 5  
Growing Degree Days 8 (Base 50)    
Moisture  
Dew Point 53 °F    
Average Humidity 83    
Maximum Humidity 93    
Minimum Humidity 72    
Precipitation  
Precipitation 0.30 in 0.11 in 2.53 in (1987)
Month to date precipitation 1.95 1.68  
Year to date precipitation 12.89 11.33  
Snow  
Snow 0.00 in - - ()
Month to date snowfall 0.1  
Since 1 July snowfall 13.0  
Snow Depth 0.00 in    
Sea Level Pressure  
Sea Level Pressure 30.18 in    
Wind  
Wind Speed 8 mph (NE)    
Max Wind Speed 15 mph    
Max Gust Speed 21 mph    
Visibility 10 miles    
Events Rain    
T = Trace of Precipitation, MM = Missing Value Source: NWS Daily Summary

Daily Weather History Graph

Daily Weather History Graph

Search for Another Location

Airport or City:

Trip Planner

Search our weather history database for the weather conditions in past years. The results will help you decide how hot, cold, wet, or windy it might be!

Date:

Astronomy

Apr. 15, 2013 Rise Set
Actual Time 6:41 AM EDT 7:52 PM EDT
Civil Twilight 6:14 AM EDT 8:19 PM EDT
Nautical Twilight 5:42 AM EDT 8:51 PM EDT
Astronomical Twilight 5:09 AM EDT 9:24 PM EDT
Moon 10:10 AM EDT (4/15) No Moon Set
Length of Visible Light 14h 04m
Length of Day
13h 10m
Waxing Crescent, 24% of the Moon is Illuminated
Apr 15
Waxing Crescent
Apr 18
First Quarter
Apr 25
Full
May 2
Last Quarter
May 9
New

Hourly Weather History & Observations

Time (EDT) Temp. Dew Point Humidity Pressure Visibility Wind Dir Wind Speed Gust Speed Precip Events Conditions
12:54 AM 64.9 °F 44.1 °F 47% 30.06 in 10.0 mi SSW 5.8 mph - 0.00 in Rain Light Rain
1:54 AM 59.0 °F 51.1 °F 75% 30.12 in 9.0 mi SSW 8.1 mph 19.6 mph 0.02 in Rain Light Rain
2:54 AM 55.9 °F 53.1 °F 90% 30.12 in 10.0 mi Calm Calm - 0.06 in Rain Light Rain
3:54 AM 55.0 °F 54.0 °F 96% 30.12 in 9.0 mi Calm Calm - 0.10 in Rain Light Rain
4:54 AM 55.0 °F 53.1 °F 93% 30.12 in 8.0 mi NNE 5.8 mph - 0.05 in Rain Light Rain
5:54 AM 54.0 °F 52.0 °F 93% 30.12 in 7.0 mi NE 5.8 mph - 0.05 in Rain Light Rain
6:54 AM 54.0 °F 51.1 °F 90% 30.14 in 10.0 mi NE 9.2 mph - 0.02 in Rain Light Rain
7:54 AM 54.0 °F 52.0 °F 93% 30.15 in 10.0 mi NNE 9.2 mph - 0.00 in   Overcast
8:23 AM 53.6 °F 51.8 °F 94% 30.16 in 10.0 mi NE 11.5 mph - N/A   Overcast
8:54 AM 54.0 °F 52.0 °F 93% 30.16 in 10.0 mi NE 10.4 mph - N/A   Overcast
9:54 AM 55.0 °F 52.0 °F 89% 30.17 in 10.0 mi NE 9.2 mph - N/A   Overcast
10:01 AM 55.4 °F 51.8 °F 88% 30.18 in 10.0 mi NE 10.4 mph - N/A   Overcast
10:08 AM 55.4 °F 51.8 °F 88% 30.19 in 10.0 mi ENE 11.5 mph - N/A   Overcast
10:54 AM 57.0 °F 53.1 °F 87% 30.17 in 10.0 mi NE 12.7 mph 17.3 mph N/A   Overcast
11:01 AM 57.2 °F 53.6 °F 88% 30.19 in 10.0 mi NE 8.1 mph 17.3 mph N/A   Overcast
11:11 AM 57.2 °F 53.6 °F 88% 30.19 in 10.0 mi NE 11.5 mph - N/A   Overcast
11:15 AM 57.2 °F 53.6 °F 88% 30.19 in 10.0 mi ENE 9.2 mph - N/A   Overcast
11:54 AM 57.9 °F 52.0 °F 81% 30.17 in 10.0 mi NE 12.7 mph - N/A   Overcast
12:54 PM 59.0 °F 52.0 °F 78% 30.18 in 10.0 mi NE 10.4 mph - N/A   Overcast
1:54 PM 59.0 °F 52.0 °F 78% 30.19 in 10.0 mi NNE 6.9 mph - N/A   Overcast
2:54 PM 63.0 °F 53.1 °F 70% 30.18 in 10.0 mi NNE 9.2 mph - N/A   Overcast
3:10 PM 62.6 °F 53.6 °F 72% 30.19 in 10.0 mi NE 9.2 mph - N/A   Overcast
3:54 PM 61.0 °F 53.1 °F 75% 30.18 in 10.0 mi ENE 6.9 mph - N/A   Overcast
4:09 PM 60.8 °F 53.6 °F 77% 30.18 in 10.0 mi NNE 8.1 mph - N/A   Overcast
4:54 PM 62.1 °F 53.1 °F 72% 30.17 in 10.0 mi NNE 10.4 mph - N/A   Overcast
5:54 PM 62.1 °F 53.1 °F 72% 30.19 in 10.0 mi NE 10.4 mph - N/A   Overcast
6:51 PM 60.8 °F 53.6 °F 77% 30.21 in 10.0 mi NE 8.1 mph - N/A   Overcast
6:54 PM 61.0 °F 52.0 °F 72% 30.20 in 10.0 mi NE 10.4 mph - N/A   Overcast
7:24 PM 60.8 °F 51.8 °F 72% 30.21 in 10.0 mi NE 11.5 mph - N/A   Overcast
7:54 PM 59.0 °F 52.0 °F 78% 30.21 in 10.0 mi NE 9.2 mph - N/A   Overcast
8:54 PM 57.9 °F 52.0 °F 81% 30.23 in 10.0 mi NNE 9.2 mph - N/A   Overcast
9:54 PM 57.9 °F 52.0 °F 81% 30.25 in 10.0 mi NE 5.8 mph - N/A   Overcast
10:16 PM 57.2 °F 53.6 °F 88% 30.26 in 10.0 mi NE 6.9 mph - N/A   Overcast
10:54 PM 57.9 °F 54.0 °F 87% 30.25 in 10.0 mi NE 8.1 mph - N/A   Overcast
11:41 PM 57.2 °F 53.6 °F 88% 30.26 in 10.0 mi NE 5.8 mph - N/A   Overcast
11:54 PM 57.9 °F 55.0 °F 90% 30.25 in 10.0 mi ENE 5.8 mph - N/A   Overcast